Regional Weather Roundup
Issued by NWS Kansas City/Pleasant Hill, MO

Home | Current Version | Previous Version | Text Only | Print | Product List | Glossary On
Versions: 1 2 3 4 5 6 7 8 9 10 11 12 13 14 15 16 17 18 19 20 21 22 23 24 25 26 27 28 29 30 31 32 33 34 35 36 37 38 39 40 41 42 43 44 45 46 47 48 49 50
000
ASUS43 KEAX 201410
RWREAX

WEATHER ROUNDUP FOR EASTERN KANSAS AND NORTHWEST MISSOURI
NATIONAL WEATHER SERVICE KANSAS CITY/PLEASANT HILL MO
900 AM CDT WED AUG 20 2014

KSZ040-057-103>105-MOZ028-029-037-043-201500-
...KANSAS CITY METROPOLITAN AREA...

CITY           SKY/WX    TMP DP  RH WIND       PRES   REMARKS
K.C. INTL      PTSUNNY   78  71  79 S12       29.88R
K.C. DOWNTOWN  SUNNY     83  69  62 SW14      29.87R
LEES SUMMIT    SUNNY     79  71  76 SW13      29.90R
OLATHE - IXD   SUNNY     79  71  76 S12       29.91R
OLATHE - OJC   SUNNY     77  71  82 S8        29.90R
LAWRENCE       SUNNY     83  71  67 S8        29.88R

$$

MOZ001>008-011>017-020>025-030>033-038>040-044>046-053-054-201500-
...NORTHERN AND CENTRAL MISSOURI...

CITY           SKY/WX    TMP DP  RH WIND       PRES   REMARKS
ST. JOSEPH     MOSUNNY   78  72  81 S9        29.86R
MOSBY          MOSUNNY   79  70  73 SE5       29.88R
WHITEMAN AFB   SUNNY     77  64  65 SW13      29.90R
CLINTON        MOSUNNY   79  73  83 SW10G16   29.92R
SEDALIA        PTSUNNY   79  71  76 SW12      29.92R
WARSAW         NOT AVBL
MARSHALL       CLOUDY    79  77  94 SW6       29.91R
CHILLICOTHE      N/A     78  72  81 CALM      29.89R
KIRKSVILLE     CLOUDY    72  67  84 CALM      29.92R

$$

MOZ041-047>049-056>058-063>065-088>090-097-201500-
...EASTERN AND SOUTHERN MISSOURI...

CITY           SKY/WX    TMP DP  RH WIND       PRES   REMARKS
ST. LOUIS INTL CLOUDY    78  72  81 E6        29.94R
SPIRIT OF STL  CLOUDY    76  71  85 CALM      29.91R
COLUMBIA       CLOUDY    77  73  87 SW8       29.92R
JEFFERSON CITY CLOUDY    77  72  84 CALM      29.91R
MEXICO         CLOUDY   N/A N/A N/A SW7       29.91R
HANNIBAL       CLOUDY    75  72  88 S7        29.91R FOG
ROLLA          PTSUNNY   77  70  79 SW8       29.94R
LEBANON        MOSUNNY   81  68  65 W9        29.97R
OSAGE BEACH    PTSUNNY   79  70  73 SW7       29.93R
SPRINGFIELD    SUNNY     80  70  71 S10       29.97R
BRANSON        SUNNY     82  68  61 SW7       30.01R
NEVADA         SUNNY     79  72  78 S9        29.94R
JOPLIN         SUNNY     81  69  67 S15       29.95R
WEST PLAINS    SUNNY     80  71  74 SW8       30.00R

$$

IAZ060-094-KSZ022-034>040-054-083-096-NEZ052-066-093-201500-
...KANSAS...SOUTHEAST NEBRASKA AND IOWA...

CITY           SKY/WX    TMP DP  RH WIND       PRES   REMARKS
TOPEKA         MOSUNNY   81  71  71 S8        29.87R
MANHATTAN      SUNNY     81  69  67 S10       29.84S
EMPORIA        MOSUNNY   76  69  79 S9        29.88R
CHANUTE        SUNNY     80  70  71 S13       29.91S
WICHITA        MOSUNNY   78  66  66 S15       29.87R
OMAHA          CLOUDY    73  66  78 E18       29.84R
LINCOLN        CLOUDY    78  66  66 SW5       29.80R
FALLS CITY     MOSUNNY   79  70  74 S9        29.84R
LAMONI         CLOUDY    69  65  86 N14       29.92R
DES MOINES     TSTM      68  65  90 W10       29.94R FOG

$$



USA.gov is the U.S. government's official web portal to all federal, state and local government web resources and services.